Flag for U.S.A. Weather past 2 weeks in Springfield, Massachusetts, U.S.A.

Now
58 °F

More clouds than sun.


Feels Like: 58 °F
Forecast: 58 / 70 °F
Wind: 5 mph from North

Location: Barnes Municipal Airport

Current Time: Sep 30, 2014 at 9:38:58 AM

Latest Report: Sep 30, 2014 at 9:04 AM


Visibility: 10 mi

Pressure: 30.03 "Hg

Humidity: 90%

Dew point: 55 °F

Location of SpringfieldLocation

Historic Weather in Springfield — Graph

°F

Springfield temperature yesterday

Maximum temperature yesterday: 77 °F (at 1:53 PM)
Minimum temperature yesterday: 56 °F (at 3:53 AM)
Average temperature yesterday: 65 °F

Past Weeks' High & Low Weather Summary

 TemperatureHumidityPressure
High85 °F (Sep 28, 2:53 PM)97% (Sep 18, 3:53 AM)30.61 "Hg (Sep 18, 3:53 AM)
Low38 °F (Sep 23, 5:53 AM)33% (Sep 18, 1:53 PM)29.57 "Hg (Sep 21, 10:53 PM)
Average60 °F74%30.13 "Hg
* Reported Sep 15 7:53 AM — Sep 30 7:53 AM, Springfield, Weather by CustomWeather, © 2014

Note: Actual official high and low records may vary slightly from our data, if they occured in-between our weather recording intervals... More about our weather records

Advertising

Springfield weather history for previous 24 hours

 ConditionsComfort  
Time TempWeatherWind HumidityBarometerVisibility
7:53 AM
Sep 30
58 °FMostly cloudy.7 mph90%30.02 "Hg9 mi
6:53 AM58 °FLight rain. Fog.5 mph93%30.01 "Hg3 mi
5:53 AM58 °FFog.5 mph90%30.00 "Hg4 mi
4:53 AM60 °FOvercast.5 mph80%29.98 "Hg10 mi
3:53 AM60 °FOvercast.8 mph80%29.98 "Hg10 mi
2:53 AM60 °FOvercast.6 mph80%29.98 "Hg10 mi
1:53 AM60 °FOvercast.7 mph80%29.99 "Hg10 mi
12:53 AM60 °FOvercast.10 mph83%29.99 "Hg10 mi
11:53 PM
Sep 29
62 °FOvercast.6 mph83%29.99 "Hg10 mi
10:53 PM64 °FMostly cloudy.8 mph81%29.98 "Hg10 mi
10:03 PM66 °FMostly cloudy.5 mph75%29.99 "Hg10 mi
8:53 PM69 °FPassing clouds.9 mph73%29.94 "Hg10 mi
7:53 PM67 °FClear.5 mph87%29.94 "Hg10 mi
6:53 PM69 °FSunny.3 mph84%29.93 "Hg10 mi
5:53 PM71 °FSunny.No wind76%29.92 "Hg10 mi
4:53 PM75 °FSunny.No wind62%29.92 "Hg10 mi
3:53 PM76 °FSunny.No wind56%29.93 "Hg10 mi
2:53 PM77 °FSunny.5 mph54%29.93 "Hg10 mi
1:53 PM77 °FSunny.8 mph52%29.92 "Hg10 mi
12:53 PM75 °FSunny.3 mph54%29.95 "Hg10 mi
11:53 AM73 °FSunny.8 mph55%29.96 "Hg10 mi
10:53 AM68 °FSunny.6 mph65%29.98 "Hg10 mi
9:53 AM63 °FSunny.3 mph78%29.99 "Hg10 mi
Weather by CustomWeather, © 2014

See weather overviewHow to use our weather pages